Regional Weather Roundup
Issued by NWS San Diego, CA

Home | Current Version | Previous Version | Text Only | Print | Product List | Glossary On
Versions: 1 2 3 4 5 6 7 8 9 10 11 12 13 14 15 16 17 18 19 20 21 22 23 24 25 26 27 28 29 30 31 32 33 34 35 36 37 38 39 40 41 42 43 44 45 46 47 48 49 50
000
ASUS46 KSGX 051711
RWRSGX

SAN DIEGO HOURLY WEATHER ROUNDUP
NATIONAL WEATHER SERVICE SAN DIEGO CA
1000 AM PDT TUE MAY 05 2015

NOTE: "FAIR" INDICATES FEW OR NO CLOUDS BELOW 12,000 FEET WITH NO
SIGNIFICANT WEATHER AND/OR OBSTRUCTIONS TO VISIBILITY.

CAZ042-043-060-061-PZZ750-775-051800-

GREATER SAN DIEGO AREA

CITY           SKY/WX    TMP DP  RH WIND       PRES   REMARKS
LINDBERGH FLD  CLOUDY    63  46  54 SW5       30.01S
POINT LOMA       N/A     65  48  55 SW5         N/A
CHULA VISTA      N/A     63  52  67 W10       29.93S
IMPERIAL BEACH CLOUDY    64  49  57 SW8       30.01S
BROWN FIELD    CLOUDY    62  48  60 W6        30.00S
MIRAMAR MCAS   CLOUDY    64  47  53 SW7       30.00R
MONTGOMERY FLD CLOUDY    62  48  60 SW6       30.00S

$$

NORTH SAN DIEGO COUNTY

CITY           SKY/WX    TMP DP  RH WIND       PRES   REMARKS
CAMP PENDLETON CLOUDY    63  48  58 SW6       30.00R
OCEANSIDE AP   CLOUDY    63  47  55 W8        29.99S
VISTA            N/A     61  51  70 CALM      29.99S
CARLSBAD       CLOUDY    61  47  59 SW8       29.99S
FALLBROOK        N/A     61  55  79 CALM      30.00S
SAN MARCOS       N/A     59  51  73 W2        29.98S
POWAY            N/A     62  50  64 CALM      30.01S

$$

EAST SAN DIEGO COUNTY

CITY           SKY/WX    TMP DP  RH WIND       PRES   REMARKS
RAMONA         CLOUDY    58  46  64 SW3       29.99S
SANTEE LAKES     N/A     63  50  62 CALM      29.99F
LA MESA          N/A     60  50  68 W2        29.94S
DESCANSO N       N/A     55  47  74 CALM      29.86S
MT. LAGUNA OBS   N/A     50  26  38 NW5       29.60F
CAMPO            N/A     57  44  62 S10       29.94F

$$

ORANGE COUNTY AND THE LOS ANGELES BASIN

CITY           SKY/WX    TMP DP  RH WIND       PRES   REMARKS
JOHN WAYNE AP  CLOUDY    63  45  51 SW3       29.99S
LAKE FOREST FR   N/A     60  47  63 SW5       29.90S
SANTA ANA        N/A     64  51  61 CALM      29.95S
HUNTINGTON BCH   N/A     62  53  72 S1        30.01S
LOS ALAMITOS   CLOUDY    63  49  59 VRB3      29.99S
FULLERTON      CLOUDY    65  45  48 SE7       29.98F
LONG BEACH     CLOUDY    63  48  58 SE7       29.99S
L.A. AP        CLOUDY    59  50  72 SW7       30.00S
L.A. DOWNTOWN  CLOUDY    62  48  60 E3        29.99S

$$

THE INLAND EMPIRE

CITY           SKY/WX    TMP DP  RH WIND       PRES   REMARKS
CORONA         PTSUNNY   62  49  62 CALM      29.99F
CHINO          PTSUNNY   64  49  57 VRB3      30.00S
ONTARIO        PTSUNNY   61  48  62 VRB3      29.98F
SAN BERNARDINO CLOUDY    59  46  63 W3        29.99F HAZE
RIVERSIDE AP   PTSUNNY   63  49  60 CALM      29.99S
RIV CYN CREST    N/A     60  59  94 W2          N/A
MORENO VALLEY    N/A     58  53  85 CALM      29.97R
MARCH ARB      CLOUDY    60  47  64 NW3       29.98F
HORSETHIEF CYN   N/A     59  45  59 NE1       29.95F
MENIFEE          N/A     59  50  72 SW3       30.05S
HEMET EAST       N/A     56  46  70 CALM      29.97S
FRENCH VALLEY  NOT AVBL
TEMECULA         N/A     59  53  81 SW5       29.95S

$$

SAN BERNARDINO AND RIVERSIDE COUNTY MOUNTAINS

CITY           SKY/WX    TMP DP  RH WIND       PRES   REMARKS
BIG BEAR AP    SUNNY     55  19  24 CALM      30.02F

$$

SOUTHERN DESERT INCLUDING THE COACHELLA VALLEY

CITY           SKY/WX    TMP DP  RH WIND       PRES   REMARKS
PALM SPRINGS   SUNNY     75  45  34 NW9       29.88S
THOUSAND PALMS   N/A     73  47  38 NW8       29.86S
THERMAL        SUNNY     76  48  37 VRB6      29.84S
BLYTHE         SUNNY     74  55  51 S9        29.87R
IMPERIAL AP    SUNNY     77  40  26 MISG      29.85S
EL CENTRO NAS  MOSUNNY   79  37  22 NW6       29.87S
YUMA AZ        MOSUNNY   76  56  49 SW6       29.88S
MEXICALI       SUNNY     75  57  53 CALM      29.87F

$$

UPPER DESERT

CITY           SKY/WX    TMP DP  RH WIND       PRES   REMARKS
VICTORVILLE AP SUNNY     66  37  34 S12       29.92F
HESPERIA         N/A     64  41  43 W8        29.98F
APPLE VALLEY     N/A     64  41  43 SW5       29.97F
PALMDALE       SUNNY     64  41  42 SW18      29.91F
LANCASTER      SUNNY     63  43  48 SW21G28   29.90F
DAGGETT        SUNNY     74  35  24 W17       29.87S
29 PALMS N     SUNNY     73  31  21 VRB3      29.95S
NEEDLES        SUNNY     77  49  37 SW7       29.87R

$$

REGIONAL REPORTS

CITY           SKY/WX    TMP DP  RH WIND       PRES   REMARKS
SANTA BARBARA  CLOUDY    61  48  62 SE3       30.00S
SANDBERG       MOSUNNY   50  44  80 SW9       29.99S HAZE
MT. WILSON       N/A    N/A N/A N/A MISG        N/A
LAS VEGAS NV   MOSUNNY   73  39  29 SW7       29.82S
PHOENIX AZ     MOSUNNY   73  52  47 VRB3      29.90S
TIJUANA        CLOUDY    63  45  51 SW3       30.02S
ENSENADA NW      N/A     63  32  31 W6        29.98R

$$

OFFSHORE ISLANDS

CITY           SKY/WX    TMP DP  RH WIND       PRES   REMARKS
CATALINA ARPT  CLOUDY    54  46  74 SW7       30.00S
SAN CLEMENTE I CLOUDY    59  48  67 W9        30.02S
SAN NICOLAS IS CLOUDY    60  45  57 NW8       30.00S

$$

MARINE AND OFFSHORE BUOY REPORTS

STATION/POSITION SKY/WX   TEMP    WIND        PRES    SWELL
                          AIR SEA DIR/SP/G            HT/PER/DIR
                          (F)     (DEG/KT/KT) (MB)    (FT/S/D)
TANNER BANKS               58 61  320/ 12/ 16 1016.3S   7/230/17
S CLEMENTE BASIN           59 64  280/  6/  8 1016.1R   7/200/17
SAN NICOLAS IS.               60                N/A     5/180/18
SO. S. ROSA ISLA           56 60  330/ 14/ 16 1015.5S   7/17
W. S. BARBARA CH           54 55  330/ 14/ 16 1015.8S   5/250/16
S. MONICA BASIN            59 58  200/  2/  2 1016.0S   5/200/17
S PEDRO CHANNEL               59                N/A     3/170/18
DANA POINT                    59                N/A     5/180/18
OCEANSIDE OFFSHR              63                N/A     5/180/18
TORREY PINES OTR              63                N/A     3/200/17
LA JOLLA 1                 61 66  260/  5/  7 1015.7S
MISSION BAY BUOY              65                N/A     3/190/15
SAN DIEGO BAY                 68              1016.1F
POINT LOMA SOUTH              64                N/A     5/190/17

$$




USA.gov is the U.S. government's official web portal to all federal, state and local government web resources and services.